This is the latest recevied weather packets stored in our database for station/object K5GTX. If no packets are shown the sender has not sent any weather packets the latest 1 day(s).
| Time | Temp. | Humidity | Pressure | Rain* | Wind** | Luminosity | Snow |
|---|---|---|---|---|---|---|---|
| 1777986345 | 22.22° C | 99% | 1011.2 hPa | 0 mm | 0.45 m/s, 234° | 87 W/m² | - |
| 1777986043 | 22.22° C | 99% | 1011.1 hPa | 0 mm | 0.89 m/s, 146° | 46 W/m² | - |
| 1777985739 | 22.22° C | 99% | 1011 hPa | 0 mm | 0.45 m/s, 198° | 55 W/m² | - |
| 1777985436 | 22.22° C | 99% | 1011 hPa | 0 mm | 0 m/s | 55 W/m² | - |
| 1777985133 | 22.22° C | 99% | 1010.9 hPa | 0 mm | 0 m/s | 35 W/m² | - |
| 1777984829 | 22.22° C | 99% | 1011.2 hPa | 0 mm | 0 m/s | 24 W/m² | - |
| 1777984525 | 22.22° C | 99% | 1010.8 hPa | 0 mm | 1.34 m/s, 231° | 23 W/m² | - |
| 1777984221 | 22.22° C | 99% | 1010.7 hPa | 0 mm | 0 m/s | 24 W/m² | - |
| 1777983919 | 22.22° C | 99% | 1010.5 hPa | 0 mm | 0 m/s | 22 W/m² | - |
| 1777983616 | 22.22° C | 99% | 1010.7 hPa | 0 mm | 1.79 m/s, 157° | 12 W/m² | - |
| 1777983312 | 21.67° C | 99% | 1010.7 hPa | 0 mm | 0 m/s | 13 W/m² | - |
| 1777983015 | 21.67° C | 99% | 1010.6 hPa | 0 mm | 2.24 m/s, 259° | 12 W/m² | - |
| 1777982705 | 22.22° C | 99% | 1010.8 hPa | 0 mm | 0 m/s | 7 W/m² | - |
| 1777982405 | 22.22° C | 99% | 1010.6 hPa | 0 mm | 1.34 m/s, 195° | 2 W/m² | - |
| 1777982101 | 22.22° C | 99% | 1010.8 hPa | 0 mm | 0 m/s | 2 W/m² | - |
| 1777981799 | 21.67° C | 99% | 1010.8 hPa | 0 mm | 1.34 m/s, 193° | 1 W/m² | - |
| 1777981495 | 21.67° C | 99% | 1010.5 hPa | 0 mm | 1.34 m/s, 133° | 1 W/m² | - |
| 1777981192 | 21.67° C | 99% | 1010.4 hPa | 0 mm | 2.24 m/s, 240° | 0 W/m² | - |
| 1777980888 | 21.67° C | 99% | 1010.4 hPa | 0 mm | 2.68 m/s, 172° | 0 W/m² | - |
| 1777980584 | 21.67° C | 99% | 1010.4 hPa | 0 mm | 0.89 m/s, 276° | 0 W/m² | - |
| 1777980282 | 21.67° C | 99% | 1010.3 hPa | 0 mm | 0.45 m/s, 117° | 0 W/m² | - |
| 1777979978 | 21.67° C | 99% | 1010.4 hPa | 0 mm | 1.79 m/s, 244° | 0 W/m² | - |
| 1777979672 | 21.67° C | 99% | 1010.5 hPa | 0 mm | 0.89 m/s, 212° | 0 W/m² | - |
| 1777979369 | 21.67° C | 99% | 1010.6 hPa | 0 mm | 0 m/s | 0 W/m² | - |
| 1777979066 | 21.67° C | 99% | 1010.4 hPa | 0 mm | 0 m/s | 0 W/m² | - |
* Rain latest hour (hover to see other rain measurements)
** Current wind speed in m/s (hover to see current wind gust speed)